Location: *
(51.1248°S, 108.4023°W)
Time: 03:11:52
(UTC+00:00)

Cosmos 1937 Rocket - Pass Details

Date: 15 June 2021
Orbit: 746 x 780 km, 74.0° (Epoch: 31 July)

Event Time Altitude Azimuth Distance (km) Brightness Sun altitude
Exits shadow 12:36:14 32° 193° (SSW) 1,294 4.4 -23.8°
Drops below altitude 10° 12:39:31 10° 165° (SSE) 2,317 6.0 -23.3°
Sets 12:42:02 0° 158° (SSE) 3,244 6.9 -22.9°
